Regional Weather Roundup
Issued by NWS

Home | Current Version | Previous Version | Graphics & Text | Print | Product List | Glossary On
Versions: 1 2 3 4 5 6 7 8 9 10 11 12 13 14 15 16 17 18 19 20 21 22 23 24 25 26 27 28 29 30 31 32 33 34 35 36 37 38 39 40 41 42 43 44 45 46 47 48 49 50
000
ASUS45 KBOU 172207
RWRCO

WEATHER ROUNDUP FOR COLORADO
NATIONAL WEATHER SERVICE DENVER/BOULDER CO
400 PM MDT WED SEP 17 2014

NOTE: "FAIR" INDICATES FEW OR NO CLOUDS BELOW 12000 FEET WITH NO
SIGNIFICANT WEATHER AND/OR OBSTRUCTIONS TO VISIBILITY.

COZ001>005-013-030-031-172300-
...NORTHWEST COLORADO...

CITY           SKY/WX    TMP DP  RH WIND       PRES   REMARKS
CRAIG          MOSUNNY   83  34  17 SW5       30.09F
HAYDEN         MOSUNNY   82  30  15 W10       30.11F
MEEKER         SUNNY     82  34  17 E6        30.10F
MOUNT WERNER   NOT AVBL
STEAMBOAT SPGS MOSUNNY   79  33  19 S3        30.14F
WALDEN         PTSUNNY   70  30  23 N16       30.26S
$$

COZ006>008-011-172300-
...WEST CENTRAL VALLEYS...

CITY           SKY/WX    TMP DP  RH WIND       PRES   REMARKS
GRAND JUNCTION SUNNY     86  42  21 W9        29.97F
MONTROSE       SUNNY     85  37  18 N9        30.05F
EAGLE          MOSUNNY   82  36  18 W5        30.13F
RIFLE          SUNNY     87  36  16 VRB3      30.02F
DELTA          SUNNY     91  35  14 SW7       30.00F HAZE
NUCLA          SUNNY     86  34  15 W5        30.08F
$$

COZ017>023-064>068-172300-
...SOUTHWEST COLORADO...

CITY           SKY/WX    TMP DP  RH WIND       PRES   REMARKS
DURANGO        PTSUNNY   76  46  34 W7        30.14F
CORTEZ         LGT RAIN  65  53  65 E23       30.15R
PAGOSA SPRINGS CLOUDY    68  38  32 N8G20     30.23R THUNDER
TELLURIDE      NOT AVBL
WOLF CREEK PAS CLOUDY    46  36  66 CALM      30.52F
$$

COZ009-010-012-014-032>034-037-058>063-172300-
...CENTRAL COLORADO...

CITY           SKY/WX    TMP DP  RH WIND       PRES   REMARKS
ASPEN          MOSUNNY   79  32  18 NW8G16    30.18F
BUENA VISTA    NOT AVBL
COPPER MTN     MOSUNNY   59  27  29 W7        30.54F
BERTHOUD PASS  FAIR      52  50  93 N6        30.59F THUNDER
COTTONWOOD PAS MOSUNNY   73  18  12 CALM      30.35F
GUNNISON       MOSUNNY   75  27  16 SW7       30.20F
KREMMLING      SUNNY     79  23  12 SE3       30.19F
LEADVILLE      MOSUNNY   65  27  23 N9        30.35F
MONARCH PASS   PTSUNNY   55  32  41 NE5       30.63F
SALIDA         MOSUNNY   81  29  15 W8        30.24F
SUNLIGHT       MOSUNNY   64  36  34 N3        30.47F
WILKERSON PASS NOT AVBL
$$

COZ069>075-172300-
...SAN LUIS VALLEY/SANGRE DE CRISTO MOUNTAINS...

CITY           SKY/WX    TMP DP  RH WIND       PRES   REMARKS
ALAMOSA        PTSUNNY   78  28  16 MISG      30.17F
LA VETA PASS   NOT AVBL
SAGUACHE       MOSUNNY   73  36  25 S7        30.22F
$$

COZ035-036-038>040-172300-
...NORTHERN COLORADO FRONT RANGE...

CITY           SKY/WX    TMP DP  RH WIND       PRES   REMARKS
DENVER INTL AP MOSUNNY   87  32  14 CALM      30.02F
DMNS CITY PARK   N/A     87  29  12 S1G9      30.00F
AURORA         PTSUNNY   88  33  14 N6        30.04F
FRONT RANGE AP PTSUNNY   88  34  14 SE7       30.04F
ERIE MUNI ARPT MOSUNNY   88  30  12 SE5       29.99F
BOULDER MUN AP MOSUNNY   86  36  16 NE6       30.01S
CENTENNIAL     MOSUNNY   85  30  13 NW3       30.05F
BROOMFIELD     PTSUNNY   88  32  13 CALM      30.04F
FORT COLLINS   SUNNY     88  39  18 W6        29.97F
LONGMONT       SUNNY     86  37  17 E3        30.01S
$$

COZ041-046-047-076>085-087-088-172300-
...PIKES PEAK/PALMER DIVIDE AND SOUTHERN FOOTHILLS...

CITY           SKY/WX    TMP DP  RH WIND       PRES   REMARKS
COLO. SPRINGS  PTSUNNY   80  37  21 SE12      30.10S
A. F. ACADEMY  SUNNY     80  38  21 SE10      30.11F
ELLICOTT       NOT AVBL
FALCON         PTSUNNY   79  37  22 SE6       30.16F
FORT CARSON    PTSUNNY   83  42  23 S10       30.07S
LIMON          MOSUNNY   84  38  19 SW17      30.04F
MONUMENT HILL  MOSUNNY   77  32  19 S6        30.15F
TRINIDAD       PTSUNNY   85  33  15 MISG      30.05F
$$

COZ042>045-048>051-090-091-172300-
...NORTHEAST COLORADO...

CITY           SKY/WX    TMP DP  RH WIND       PRES   REMARKS
GREELEY ARPT   SUNNY     88  36  15 W6        29.98S
AKRON          SUNNY     88  42  20 MISG      29.97F
BURLINGTON     PTSUNNY   81  46  29 SW16G24   29.97R
WRAY           SUNNY     92  41  17 CALM      29.91F
STERLING       SUNNY     91  50  24 E8        29.92F
HOLYOKE        SUNNY     91  46  21 E3        29.92S
FORT MORGAN    RAIN      79  48  32 NW24G32   29.99R
$$

COZ086-089-092>099-172300-
...SOUTHEAST COLORADO...

CITY           SKY/WX    TMP DP  RH WIND       PRES   REMARKS
PUEBLO         MOSUNNY   91  35  13 SW3       29.95F
LA JUNTA       PTSUNNY   92  34  13 S8        29.93F
LAMAR          PTSUNNY   95  38  13 SE8       29.88F
SPRINGFIELD      N/A     86  44  23 S12       29.97F
$$



USA.gov is the U.S. government's official web portal to all federal, state and local government web resources and services.